Regional Weather Roundup
Issued by NWS Mt. Holly, NJ

Home | Current Version | Previous Version | Text Only | Print | Product List | Glossary On
Versions: 1 2 3 4 5 6 7 8 9 10 11 12 13 14 15 16 17 18 19 20 21 22 23 24 25 26 27 28 29 30 31 32 33 34 35 36 37 38 39 40 41 42 43 44 45 46 47 48 49 50
000
ASUS41 KPHI 290312
RWRPHI

REGIONAL WEATHER ROUNDUP
NATIONAL WEATHER SERVICE MOUNT HOLLY NJ
1100 PM EDT SUN AUG 28 2016

NOTE:  "FAIR" INDICATES FEW OR NO CLOUDS BELOW 12,000 FEET WITH NO
SIGNIFICANT WEATHER AND/OR OBSTRUCTIONS TO VISIBILITY.

 * = STATION DOES NOT REPORT PRECIPITATION (E.G. RAIN, SNOW, ETC.)
        OR FOG.

NJZ015>026-290400-
SOUTHERN NEW JERSEY

CITY           SKY/WX    TMP DP  RH WIND       PRES   REMARKS
POMONA         CLEAR     75  67  76 S3        30.18R
WILDWOOD*        N/A     73  68  84 SE6       30.18R
MILLVILLE      CLEAR     68  68 100 CALM      30.19R
WRIGHTSTOWN    CLEAR     70  65  85 SW3       30.16R
MOUNT HOLLY    CLEAR     72  66  81 CALM      30.18R
TRENTON        CLEAR     74  63  68 S6        30.18R

$$
NJZ001>014-290400-
NORTHERN NEW JERSEY

CITY           SKY/WX    TMP DP  RH WIND       PRES   REMARKS
SUSSEX         CLEAR     70  68  93 CALM      30.18R
ANDOVER*         N/A     70  65  84 CALM      30.18S
MORRISTOWN     CLEAR     68  64  88 CALM      30.18R
NEWARK         PTCLDY    76  66  71 S7        30.17R
TETERBORO      CLEAR     76  66  71 S5        30.16R
CALDWELL       CLEAR     75  65  70 CALM      30.18R
SOMERVILLE     CLEAR     72  64  76 CALM      30.16R
ALLAIRE*       CLEAR     72  67  84 CALM      30.19R
TOMS RIVER*    CLEAR     67  64  90 SW3       30.19R

$$
PAZ043-044-047-054-055-060>062-066>071-290400-
EASTERN PENNSYLVANIA

CITY           SKY/WX    TMP DP  RH WIND       PRES   REMARKS
PHILADELPHIA   CLEAR     77  65  66 S7        30.20R
NORTH PHILA    CLEAR     77  66  68 S3        30.20R
BLUE BELL*     CLEAR     73  64  73 SW7       30.19R
DOYLESTOWN     CLEAR     77  66  68 S5        30.19R
QUAKERTOWN*    CLEAR     72  64  78 CALM      30.20R
POTTSTOWN      PTCLDY    72  65  78 CALM      30.21R
LANCASTER      CLOUDY    76  67  73 SW3       30.19R
COATESVILLE    PTCLDY    73  64  73 CALM      30.22R
READING        CLOUDY    76  64  66 SW5       30.17S
ALLENTOWN      CLEAR     75  63  66 SW3       30.17R
MOUNT POCONO   CLEAR     68  61  78 W5        30.23R
WILKES BARRE   PTCLDY    77  63  61 SW3       30.19R

$$
DEZALL-MDZ008-012-015-019-020-290400-
DELAWARE AND EASTERN MARYLAND

CITY           SKY/WX    TMP DP  RH WIND       PRES   REMARKS
WILMINGTON     CLEAR     75  66  73 SW6       30.20R
DOVER          CLEAR     72  72 100 S5        30.17S
GEORGETOWN     NOT AVBL
EASTON         CLEAR     73  69  89 CALM      30.23R
PATUXENT       CLEAR     76  65  68 E7        30.18R
OCEAN CITY     CLEAR     76  66  71 E7        30.17R
WALLOPS ISLAND CLEAR     75  60  59 E8        30.16S
CAMBRIDGE      PTCLDY    66  64  94 CALM      30.19R
SALISBURY      CLEAR     69  66  90 CALM      30.18R

$$
PAZ001-021-NYZ056-072-MDZ011-DCZ001-290400-
OTHER NEARBY LOCATIONS

CITY           SKY/WX    TMP DP  RH WIND       PRES   REMARKS
HARRISBURG     MOCLDY    79  68  69 VRB3      30.19R
STATE COLLEGE  RAIN      68  66  93 W12       30.23R
WILLIAMSPORT   CLOUDY    75  64  68 W5        30.18R
BINGHAMTON     CLOUDY    75  66  73 SW7       30.19R
NEW YORK CITY  NOT AVBL
BALTIMORE      PTCLDY    73  65  75 CALM      30.20R
WASHINGTON DC  PTCLDY    79  66  64 SE5       30.20R

$$



USA.gov is the U.S. government's official web portal to all federal, state and local government web resources and services.